Weather observations for the past three days for
Cheraw Municipal Lynch Bellinger Field
| Date | Time (edt) | Wind (kph) | Vis. (km) | Weather | Sky Cond. | Temperature (ºC) | Relative Humidity | Wind Chill (°C) | Heat Index (°C) | Pressure | Precipitation (cm) | ||||||
|---|---|---|---|---|---|---|---|---|---|---|---|---|---|---|---|---|---|
| Air | Dwpt | 6 hour | altimeter (cm) | sea level (mb) | 1 hr | 3 hr | 6 hr | ||||||||||
| Max. | Min. | ||||||||||||||||
| 03 | 21:55 | SW 6 | 16.09 | Fair | CLR | 14 | 6 | 59% | 76.3 | 0.0 | |||||||
| 03 | 21:35 | Calm | 16.09 | Fair | CLR | 13 | 6 | 63% | 76.28 | 0.0 | |||||||
| 03 | 21:15 | Calm | 16.09 | Fair | CLR | 14 | 5 | 55% | 76.28 | 0.0 | |||||||
| 03 | 20:55 | Calm | 16.09 | Fair | CLR | 15 | 6 | 55% | 76.25 | 0.0 | |||||||
| 03 | 20:35 | Calm | 16.09 | Fair | CLR | 16 | 6 | 52% | 76.25 | 0.0 | |||||||
| 03 | 20:15 | Calm | 16.09 | Fair | CLR | 17 | 6 | 49% | 76.23 | 0.0 | |||||||
| 03 | 19:55 | Calm | 16.09 | Fair | CLR | 19 | 4 | 37% | 76.23 | 0.0 | |||||||
| 03 | 19:35 | W 7 | 16.09 | Fair | CLR | 20 | 4 | 35% | 76.23 | 0.0 | |||||||
| 03 | 19:15 | W 11 | 16.09 | Fair | CLR | 20 | 3 | 33% | 76.23 | 0.0 | |||||||
| 03 | 18:55 | W 11 | 16.09 | Fair | CLR | 21 | 3 | 31% | 76.23 | 0.0 | |||||||
| 03 | 18:35 | Vrbl 7 | 16.09 | Fair | CLR | 21 | 3 | 31% | 76.25 | 0.0 | |||||||
| 03 | 18:15 | W 9 | 16.09 | Fair | CLR | 21 | 2 | 29% | 76.25 | 0.0 | |||||||
| 03 | 17:55 | Vrbl 9 G 20 | 16.09 | Fair | CLR | 21 | 3 | 31% | 76.25 | 0.0 | |||||||
| 03 | 17:35 | Vrbl 7 | 16.09 | Fair | CLR | 21 | 2 | 29% | 76.25 | 0.0 | |||||||
| 03 | 17:15 | NW 13 | 16.09 | Fair | CLR | 22 | 3 | 29% | 76.23 | 0.0 | |||||||
| 03 | 16:55 | N 15 | 16.09 | Fair | CLR | 21 | 2 | 29% | 76.23 | 0.0 | |||||||
| 03 | 16:35 | NW 13 | 16.09 | Fair | CLR | 21 | 2 | 29% | 76.25 | 0.0 | |||||||
| 03 | 16:15 | N 9 | 16.09 | Fair | CLR | 21 | 2 | 29% | 76.28 | 0.0 | |||||||
| 03 | 15:55 | NW 19 G 30 | 16.09 | Fair | CLR | 21 | 2 | 29% | 76.3 | 0.0 | |||||||
| 03 | 15:35 | NW 17 | 16.09 | Fair | CLR | 21 | 3 | 31% | 76.33 | 0.0 | |||||||
| 03 | 15:15 | NW 17 | 16.09 | Fair | CLR | 20 | 2 | 30% | 76.38 | 0.0 | |||||||
| 03 | 14:55 | Vrbl 9 G 26 | 16.09 | Fair | CLR | 20 | 2 | 30% | 76.38 | 0.0 | |||||||
| 03 | 14:35 | NW 15 | 16.09 | Fair | CLR | 20 | 2 | 30% | 76.4 | 0.0 | |||||||
| 03 | 14:15 | Vrbl 7 G 28 | 16.09 | Fair | CLR | 20 | 2 | 30% | 76.43 | 0.0 | |||||||
| 03 | 13:35 | Vrbl 11 G 30 | 16.09 | Fair | CLR | 19 | 2 | 32% | 76.45 | 0.0 | |||||||
| 03 | 13:15 | N 19 | 16.09 | Fair | CLR | 19 | 2 | 32% | 76.48 | 0.0 | |||||||
| 03 | 12:55 | Vrbl 7 G 19 | 16.09 | Fair | CLR | 19 | 2 | 32% | 76.48 | 0.0 | |||||||
| 03 | 12:35 | Vrbl 9 | 16.09 | Fair | CLR | 18 | 2 | 34% | 76.53 | 0.0 | |||||||
| 03 | 12:15 | Vrbl 11 | 16.09 | Fair | CLR | 18 | 1 | 32% | 76.53 | 0.0 | |||||||
| 03 | 11:55 | NW 13 G 24 | 16.09 | Fair | CLR | 17 | 1 | 34% | 76.56 | 0.0 | |||||||
| 03 | 11:35 | N 11 | 16.09 | Fair | CLR | 17 | 1 | 34% | 76.56 | 0.0 | |||||||
| 03 | 11:15 | N 17 G 26 | 16.09 | Fair | CLR | 16 | 1 | 36% | 76.56 | 0.0 | |||||||
| 03 | 10:55 | NE 17 | 16.09 | Fair | CLR | 15 | 1 | 39% | 76.56 | 0.0 | |||||||
| 03 | 10:35 | NE 17 | 16.09 | Fair | CLR | 15 | 3 | 45% | 76.53 | 0.0 | |||||||
| 03 | 10:15 | NE 11 | 16.09 | Fair | CLR | 15 | 3 | 45% | 76.53 | 0.0 | |||||||
| 03 | 09:55 | NE 17 | 16.09 | Fair | CLR | 14 | 3 | 48% | 76.53 | 0.0 | |||||||
| 03 | 09:35 | NE 11 | 16.09 | Fair | CLR | 13 | 5 | 59% | 76.53 | 0.0 | |||||||
| 03 | 09:15 | NE 9 | 16.09 | Fair | CLR | 12 | 5 | 63% | 76.53 | 0.0 | |||||||
| 03 | 08:55 | Vrbl 7 | 16.09 | Fair | CLR | 11 | 5 | 67% | 76.53 | 0.0 | |||||||
| 03 | 08:35 | Calm | 16.09 | Fair | CLR | 10 | 6 | 76% | 76.53 | 0.0 | |||||||
| 03 | 08:15 | Calm | 16.09 | Fair | CLR | 9 | 6 | 82% | 76.5 | 0.0 | |||||||
| 03 | 07:55 | Calm | 16.09 | Fair | CLR | 8 | 5 | 82% | 76.5 | 0.0 | |||||||
| 03 | 07:35 | Calm | 16.09 | Fair | CLR | 7 | 6 | 93% | 76.48 | 0.0 | |||||||
| 03 | 07:15 | Calm | 16.09 | Fair | CLR | 6 | 5 | 93% | 76.45 | 0.0 | |||||||
| 03 | 06:55 | N 7 | 14.48 | Fair | CLR | 4 | 4 | 100% | 2 | 76.4 | 0.0 | ||||||
| 03 | 06:35 | Calm | 14.48 | Fair | CLR | 5 | 4 | 93% | 76.4 | 0.0 | |||||||
| 03 | 06:15 | Calm | 16.09 | Fair | CLR | 5 | 4 | 93% | 76.38 | 0.0 | |||||||
| 03 | 05:55 | N 7 | 12.87 | Fair | CLR | 4 | 4 | 100% | 2 | 76.35 | 0.0 | ||||||
| 03 | 05:35 | Calm | 6.44 | Fog/Mist | CLR | 5 | 5 | 100% | 76.35 | 0.0 | |||||||
| 03 | 05:15 | Calm | 11.27 | Fair | CLR | 5 | 5 | 100% | 76.35 | 0.0 | |||||||
| 03 | 04:55 | Calm | 9.66 | Fog/Mist | CLR | 5 | 4 | 93% | 76.33 | 0.0 | |||||||
| 03 | 04:35 | Calm | 16.09 | Fair | CLR | 6 | 6 | 100% | 76.33 | 0.0 | |||||||
| 03 | 04:15 | N 9 | 16.09 | Fair | CLR | 6 | 6 | 100% | 4 | 76.3 | 0.0 | ||||||
| 03 | 03:55 | NW 7 | 16.09 | Fair | CLR | 6 | 6 | 100% | 5 | 76.28 | 0.0 | 0.03 | |||||
| 03 | 03:35 | Calm | 12.87 | Fair | CLR | 6 | 6 | 100% | 76.25 | 0.0 | |||||||
| 03 | 03:15 | NW 9 | 16.09 | Fair | CLR | 7 | 7 | 100% | 5 | 76.23 | 0.0 | ||||||
| 03 | 02:55 | NW 7 | 14.48 | Fair | CLR | 7 | 7 | 100% | 6 | 76.23 | 0.0 | ||||||
| 03 | 02:35 | Calm | 8.05 | Fog/Mist | CLR | 7 | 7 | 100% | 76.2 | 0.0 | |||||||
| 03 | 02:15 | N 6 | 16.09 | Fair | CLR | 8 | 8 | 100% | 76.2 | 0.0 | |||||||
| 03 | 01:55 | N 7 | 14.48 | Fair | CLR | 9 | 9 | 100% | 8 | 76.2 | 0.0 | ||||||
| 03 | 01:35 | N 7 | 6.44 | Fog/Mist | FEW120 | 9 | 9 | 100% | 8 | 76.2 | 0.0 | ||||||
| 03 | 01:15 | N 9 | 4.83 | Fog/Mist | BKN120 | 10 | 10 | 100% | 9 | 76.2 | 0.0 | ||||||
| 03 | 00:55 | Calm | 2.41 | Fog/Mist | FEW080 OVC110 | 9 | 9 | 100% | 76.2 | 0.0 | |||||||
| 03 | 00:35 | Calm | 0.80 | Fog/Mist | OVC110 | 9 | 9 | 100% | 76.17 | 0.0 | |||||||
| 03 | 00:15 | Calm | 0.40 | Fog | BKN120 | 9 | 9 | 100% | 76.17 | 0.0 | |||||||
| 02 | 23:55 | Calm | 0.40 | Fog | BKN110 | 9 | 9 | 100% | 76.17 | 0.0 | |||||||
| 02 | 23:35 | Calm | 4.83 | Fog/Mist | CLR | 9 | 9 | 100% | 76.15 | 0.0 | |||||||
| 02 | 23:15 | Calm | 0.40 | Fog | BKN014 BKN019 | 9 | 9 | 100% | 76.15 | 0.0 | |||||||
| 02 | 22:55 | Calm | 0.40 | Fog | BKN013 BKN019 | 10 | 9 | 94% | 76.12 | 0.0 | |||||||
| 02 | 22:35 | Calm | 0.40 | Fog | SCT014 | 10 | 10 | 100% | 76.12 | 0.0 | |||||||
| 02 | 22:15 | Calm | 0.24 | Fog | BKN014 | 10 | 9 | 94% | 76.1 | 0.0 | |||||||
| 02 | 21:55 | Calm | 0.40 | Fog | BKN014 | 10 | 10 | 100% | 76.1 | 0.0 | |||||||
| 02 | 21:35 | Calm | 9.66 | Fog/Mist | SCT021 | 11 | 11 | 100% | 76.07 | 0.0 | |||||||
| 02 | 21:15 | Calm | 11.27 | Partly Cloudy | SCT021 | 11 | 11 | 100% | 76.05 | 0.0 | |||||||
| 02 | 20:55 | Calm | 16.09 | Fair | CLR | 12 | 11 | 94% | 76.02 | 0.0 | |||||||
| 02 | 20:35 | Calm | 16.09 | A Few Clouds | FEW023 | 12 | 11 | 94% | 76 | 0.0 | |||||||
| 02 | 20:15 | Calm | 16.09 | Fair | CLR | 13 | 11 | 88% | 75.97 | 0.0 | |||||||
| 02 | 19:55 | Calm | 16.09 | Fair | CLR | 14 | 10 | 77% | 75.95 | 0.0 | |||||||
| 02 | 19:35 | Calm | 16.09 | Fair | CLR | 14 | 11 | 82% | 75.95 | 0.0 | |||||||
| 02 | 19:15 | Calm | 16.09 | Partly Cloudy | SCT110 | 14 | 10 | 77% | 75.92 | 0.0 | |||||||
| 02 | 18:55 | Calm | 16.09 | Mostly Cloudy | BKN100 | 14 | 10 | 77% | 75.92 | 0.0 | |||||||
| 02 | 18:35 | Calm | 16.09 | Overcast | FEW021 OVC100 | 14 | 10 | 77% | 75.92 | 0.0 | |||||||
| 02 | 18:15 | E 7 | 16.09 | Partly Cloudy | FEW021 SCT100 | 15 | 10 | 72% | 75.92 | 0.0 | |||||||
| 02 | 17:55 | SE 7 | 16.09 | Fair | CLR | 15 | 10 | 72% | 75.92 | 0.0 | |||||||
| 02 | 17:35 | Calm | 16.09 | A Few Clouds | FEW100 | 15 | 10 | 72% | 75.92 | 0.0 | |||||||
| 02 | 17:15 | E 9 | 16.09 | Fair | CLR | 15 | 10 | 72% | 75.9 | 0.0 | |||||||
| 02 | 16:55 | E 11 | 16.09 | Partly Cloudy | SCT055 | 15 | 10 | 72% | 75.9 | 0.0 | 0.03 | ||||||
| 02 | 16:35 | E 9 | 16.09 | Mostly Cloudy | BKN050 | 14 | 10 | 77% | 75.92 | 0.0 | |||||||
| 02 | 16:15 | NE 13 | 16.09 | Light Rain | FEW026 BKN050 | 14 | 10 | 77% | 75.92 | 0.0 | |||||||
| 02 | 15:55 | NE 11 | 16.09 | Light Rain | FEW023 BKN048 | 14 | 10 | 77% | 75.95 | 0.0 | |||||||
| 02 | 15:35 | NE 17 | 16.09 | Mostly Cloudy | FEW022 BKN047 BKN085 | 14 | 10 | 77% | 75.95 | 0.0 | |||||||
| 02 | 15:15 | E 17 | 16.09 | Partly Cloudy | FEW015 FEW021 SCT044 | 14 | 11 | 82% | 75.95 | 0.0 | |||||||
| 02 | 14:55 | NE 17 | 16.09 | Mostly Cloudy | SCT015 BKN020 BKN044 | 14 | 11 | 82% | 75.95 | 0.0 | |||||||
| 02 | 14:35 | E 15 | 16.09 | Light Drizzle | SCT014 SCT021 | 14 | 11 | 82% | 75.95 | 0.0 | |||||||
| 02 | 14:15 | NE 7 | 16.09 | Light Drizzle | SCT014 BKN021 | 13 | 11 | 88% | 75.97 | 0.0 | |||||||
| 02 | 13:55 | NE 9 | 16.09 | A Few Clouds | FEW014 | 13 | 11 | 88% | 75.97 | 0.0 | |||||||
| 02 | 13:35 | E 15 | 16.09 | Light Rain | CLR | 13 | 11 | 88% | 75.95 | 0.0 | |||||||
| 02 | 13:15 | NE 13 | 11.27 | Light Rain | CLR | 13 | 11 | 88% | 75.97 | 0.0 | |||||||
| 02 | 12:55 | Vrbl 9 | 11.27 | Light Rain | FEW015 FEW020 FEW080 | 13 | 11 | 88% | 76 | 0.0 | |||||||
| 02 | 12:35 | NE 7 | 16.09 | A Few Clouds | FEW019 FEW075 | 13 | 11 | 88% | 76.05 | 0.0 | |||||||
| 02 | 12:15 | NE 13 | 16.09 | Light Rain | CLR | 12 | 11 | 94% | 76.02 | 0.0 | |||||||
| 02 | 11:55 | NE 13 | 14.48 | Light Rain | CLR | 12 | 11 | 94% | 76.02 | 0.0 | 0.03 | ||||||
| 02 | 11:35 | NE 9 | 6.44 | Light Rain | NULL | 12 | 11 | 94% | 76.05 | 0.0 | |||||||
| 02 | 11:15 | NE 11 | 11.27 | Light Rain | FEW037 FEW047 SCT075 | 12 | 10 | 88% | 76.07 | 0.0 | |||||||
| 02 | 10:55 | NE 13 | 16.09 | Overcast | FEW032 BKN044 OVC075 | 12 | 10 | 88% | 76.02 | 0.0 | |||||||
| 02 | 10:35 | E 13 | 16.09 | Light Rain | BKN031 OVC041 | 12 | 11 | 94% | 76 | 0.0 | |||||||
| 02 | 10:15 | NE 17 | 12.87 | Light Rain | BKN028 BKN032 OVC038 | 12 | 11 | 94% | 76 | 0.0 | |||||||
| 02 | 09:55 | E 15 | 4.02 | Rain | BKN026 OVC031 | 12 | 11 | 94% | 76.02 | 0.0 | |||||||
| 02 | 09:35 | NE 15 | 4.83 | Light Rain | OVC024 | 12 | 11 | 94% | 76.05 | 0.0 | |||||||
| 02 | 09:15 | NE 15 | 8.05 | Light Rain | SCT024 | 13 | 12 | 94% | 76.02 | 0.0 | |||||||
| 02 | 08:55 | NE 9 | 6.44 | Light Rain | CLR | 13 | 12 | 94% | 75.95 | 0.0 | 0.03 | ||||||
| 02 | 08:35 | NE 13 | 8.05 | Light Rain | FEW070 | 13 | 12 | 94% | 75.92 | 0.0 | |||||||
| 02 | 08:15 | NE 11 | 12.87 | Light Rain | FEW075 | 13 | 12 | 94% | 75.9 | 0.0 | |||||||
| 02 | 07:55 | E 9 | 9.66 | Light Rain | CLR | 13 | 12 | 94% | 75.87 | 0.0 | 0.03 | ||||||
| 02 | 07:35 | E 11 | 9.66 | Light Rain | CLR | 12 | 12 | 100% | 75.87 | 0.0 | |||||||
| 02 | 07:15 | Vrbl 6 | 3.22 | Light Rain | CLR | 12 | 12 | 100% | 75.9 | 0.0 | |||||||
| 02 | 06:55 | Calm | 6.44 | Light Rain | FEW031 FEW042 SCT060 | 12 | 12 | 100% | 75.92 | 0.0 | 0.05 | ||||||
| 02 | 06:35 | Calm | 8.05 | Light Rain | NULL | 13 | 12 | 94% | 75.92 | 0.0 | |||||||
| 02 | 06:15 | Calm | 8.05 | Light Rain | SCT027 BKN055 OVC085 | 13 | 12 | 94% | 75.92 | 0.0 | |||||||
| 02 | 05:55 | Calm | 8.05 | Light Rain | FEW026 SCT039 BKN050 | 13 | 12 | 94% | 75.92 | 0.0 | 0.08 | ||||||
| 02 | 05:35 | Calm | 12.87 | Light Rain | FEW040 SCT047 BKN055 | 13 | 12 | 94% | 75.9 | 0.0 | |||||||
| 02 | 05:15 | Calm | 12.87 | Light Rain | NULL | 13 | 12 | 94% | 75.92 | 0.0 | |||||||
| 02 | 04:55 | Calm | 14.48 | Light Rain | NULL | 13 | 12 | 94% | 75.92 | 0.0 | |||||||
| 02 | 04:35 | Calm | 9.66 | Light Rain | BKN055 BKN065 OVC075 | 13 | 12 | 94% | 75.92 | 0.0 | |||||||
| 02 | 04:15 | Calm | 16.09 | Overcast | FEW035 BKN055 OVC075 | 13 | 12 | 94% | 75.92 | 0.0 | |||||||
| 02 | 03:55 | Calm | 16.09 | Overcast | BKN055 OVC075 | 13 | 12 | 94% | 75.9 | 0.0 | |||||||
| 02 | 03:35 | Calm | 16.09 | Overcast | FEW060 BKN075 OVC100 | 13 | 12 | 94% | 75.87 | 0.0 | |||||||
| 02 | 03:15 | Calm | 16.09 | Overcast | OVC100 | 13 | 12 | 94% | 75.9 | 0.0 | |||||||
| 02 | 02:55 | Calm | 16.09 | Overcast | OVC100 | 13 | 12 | 94% | 75.9 | 0.0 | |||||||
| 02 | 02:35 | Calm | 16.09 | Overcast | FEW030 SCT036 OVC100 | 13 | 12 | 94% | 75.92 | 0.0 | |||||||
| 02 | 02:15 | Calm | 16.09 | Overcast | SCT028 OVC036 | 13 | 11 | 88% | 75.92 | 0.0 | |||||||
| 02 | 01:55 | Calm | 16.09 | Overcast | SCT026 BKN032 OVC042 | 13 | 11 | 88% | 75.95 | 0.0 | |||||||
| 02 | 01:35 | Calm | 16.09 | Overcast | BKN028 OVC033 | 14 | 12 | 88% | 75.95 | 0.0 | |||||||
| 02 | 01:15 | Calm | 16.09 | Overcast | OVC030 | 13 | 11 | 88% | 75.97 | 0.0 | |||||||
| 02 | 00:55 | Calm | 16.09 | Overcast | OVC030 | 13 | 11 | 88% | 75.97 | 0.0 | |||||||
| 02 | 00:35 | E 6 | 16.09 | Overcast | OVC031 | 14 | 11 | 82% | 75.97 | 0.0 | |||||||
| 02 | 00:15 | Calm | 16.09 | Overcast | FEW022 OVC029 | 14 | 11 | 82% | 76 | 0.0 | |||||||
| 01 | 23:55 | Calm | 16.09 | Overcast | SCT022 BKN028 OVC036 | 14 | 11 | 82% | 75.97 | 0.0 | |||||||
| 01 | 23:35 | E 6 | 16.09 | Overcast | FEW023 BKN030 OVC036 | 14 | 11 | 82% | 76 | 0.0 | |||||||
| 01 | 23:15 | Calm | 16.09 | Overcast | BKN034 OVC041 | 15 | 11 | 77% | 76 | 0.0 | |||||||
| 01 | 22:55 | Calm | 16.09 | Mostly Cloudy | SCT030 BKN038 | 15 | 11 | 77% | 76 | 0.0 | |||||||
| 01 | 22:35 | Calm | 16.09 | Overcast | OVC029 | 15 | 11 | 77% | 76 | 0.0 | |||||||
| 01 | 22:15 | Calm | 16.09 | Overcast | SCT029 OVC034 | 15 | 12 | 82% | 76 | 0.0 | |||||||
| 01 | 21:55 | Calm | 16.09 | Overcast | SCT029 OVC035 | 14 | 11 | 82% | 75.97 | 0.0 | |||||||
| 01 | 21:35 | Calm | 16.09 | Overcast | SCT029 BKN037 OVC043 | 15 | 12 | 82% | 75.97 | 0.0 | |||||||
| 01 | 21:15 | Calm | 16.09 | Overcast | BKN037 OVC045 | 16 | 10 | 68% | 75.95 | 0.0 | |||||||
| 01 | 20:55 | Calm | 4.83 | Overcast with Haze | BKN034 BKN041 OVC048 | 17 | 10 | 64% | 75.97 | 0.0 | |||||||
| 01 | 20:35 | Calm | 16.09 | Overcast | BKN030 OVC043 | 17 | 9 | 60% | 75.95 | 0.0 | |||||||
| 01 | 20:15 | Calm | 16.09 | Overcast | FEW033 OVC042 | 17 | 10 | 64% | 75.92 | 0.0 | |||||||
| 01 | 19:55 | Calm | 16.09 | Mostly Cloudy | BKN038 BKN047 | 17 | 9 | 60% | 75.92 | 0.0 | |||||||
| 01 | 19:35 | Calm | 16.09 | Mostly Cloudy | BKN036 BKN044 | 18 | 9 | 56% | 75.92 | 0.0 | |||||||
| 01 | 19:15 | SE 6 | 16.09 | Mostly Cloudy | SCT039 BKN046 | 18 | 9 | 56% | 75.92 | 0.0 | |||||||
| 01 | 18:55 | S 7 | 16.09 | A Few Clouds | FEW037 | 18 | 8 | 52% | 75.95 | 0.0 | |||||||
| 01 | 18:35 | SE 7 | 16.09 | Fair | CLR | 19 | 8 | 49% | 75.95 | 0.0 | |||||||
| 01 | 18:15 | SW 6 | 16.09 | A Few Clouds | FEW043 FEW055 | 18 | 8 | 52% | 75.97 | 0.0 | |||||||
| 01 | 17:55 | S 7 | 16.09 | Partly Cloudy | FEW043 SCT050 | 19 | 8 | 49% | 75.97 | 0.0 | |||||||
| 01 | 17:35 | S 6 | 16.09 | Mostly Cloudy | SCT039 SCT046 BKN050 | 18 | 8 | 52% | 75.97 | 0.0 | |||||||
| 01 | 17:15 | Vrbl 6 | 16.09 | Mostly Cloudy | BKN037 | 18 | 8 | 52% | 76 | 0.0 | |||||||
| 01 | 16:55 | Calm | 16.09 | Mostly Cloudy | BKN035 BKN044 | 19 | 8 | 49% | 75.97 | 0.0 | |||||||
| 01 | 16:35 | Calm | 16.09 | Partly Cloudy | SCT036 SCT044 | 18 | 8 | 52% | 75.97 | 0.0 | |||||||
| 01 | 16:15 | Vrbl 6 | 16.09 | Partly Cloudy | SCT036 | 19 | 7 | 46% | 76 | 0.0 | |||||||
| 01 | 15:55 | SE 9 | 16.09 | Partly Cloudy | SCT035 | 18 | 7 | 49% | 76.02 | 0.0 | |||||||
| 01 | 15:35 | NE 9 | 16.09 | Mostly Cloudy | BKN031 | 18 | 7 | 49% | 76.05 | 0.0 | |||||||
| 01 | 15:15 | Vrbl 9 | 16.09 | Overcast | OVC031 | 18 | 7 | 49% | 76.07 | 0.0 | |||||||
| 01 | 14:55 | E 7 | 16.09 | Mostly Cloudy | BKN032 | 17 | 7 | 52% | 76.1 | 0.0 | |||||||
| 01 | 14:35 | Vrbl 6 | 16.09 | A Few Clouds | FEW034 FEW055 | 17 | 6 | 49% | 76.12 | 0.0 | |||||||
| 01 | 14:15 | SE 6 G 19 | 16.09 | Mostly Cloudy | FEW034 BKN055 BKN065 | 17 | 6 | 49% | 76.12 | 0.0 | |||||||
| 01 | 13:55 | Calm | 16.09 | Partly Cloudy | SCT060 | 16 | 6 | 52% | 76.15 | 0.0 | |||||||
| 01 | 13:35 | Vrbl 7 G 20 | 16.09 | Mostly Cloudy | BKN032 | 16 | 5 | 48% | 76.15 | 0.0 | |||||||
| 01 | 13:15 | SE 19 | 16.09 | Overcast | OVC034 | 16 | 5 | 48% | 76.15 | 0.0 | |||||||
| 01 | 12:55 | SE 15 | 16.09 | Mostly Cloudy | BKN036 | 16 | 5 | 48% | 76.15 | 0.0 | |||||||
| 01 | 12:35 | E 15 | 16.09 | Mostly Cloudy | BKN037 | 16 | 5 | 48% | 76.15 | 0.0 | |||||||
| 01 | 12:15 | E 13 | 16.09 | Overcast | OVC035 | 14 | 5 | 55% | 76.2 | 0.0 | |||||||
| 01 | 11:55 | E 13 G 22 | 16.09 | Overcast | OVC036 | 14 | 5 | 55% | 76.23 | 0.0 | |||||||
| 01 | 11:35 | E 19 | 16.09 | Overcast | OVC038 | 14 | 6 | 59% | 76.2 | 0.0 | |||||||
| 01 | 11:15 | E 17 | 16.09 | Overcast | OVC039 | 14 | 6 | 59% | 76.2 | 0.0 | |||||||
| 01 | 10:55 | E 20 | 16.09 | Overcast | OVC040 | 14 | 5 | 55% | 76.2 | 0.0 | |||||||
| 01 | 10:35 | E 19 G 35 | 16.09 | Overcast | OVC040 | 14 | 5 | 55% | 76.2 | 0.0 | |||||||
| 01 | 10:15 | E 20 | 16.09 | Overcast | OVC043 | 14 | 5 | 55% | 76.17 | 0.0 | |||||||
| 01 | 09:55 | E 19 G 30 | 16.09 | Overcast | OVC044 | 14 | 5 | 55% | 76.17 | 0.0 | |||||||
| 01 | 09:35 | E 22 | 16.09 | Overcast | OVC043 | 15 | 4 | 48% | 76.15 | 0.0 | |||||||
| 01 | 09:15 | E 17 | 16.09 | Overcast | OVC041 | 15 | 5 | 51% | 76.15 | 0.0 | |||||||
| 01 | 08:55 | E 17 | 16.09 | Overcast | OVC043 | 15 | 5 | 51% | 76.15 | 0.0 | |||||||
| 01 | 08:35 | E 15 | 16.09 | Overcast | OVC046 | 14 | 5 | 55% | 76.15 | 0.0 | |||||||
| 01 | 08:15 | E 13 | 16.09 | Mostly Cloudy | BKN048 | 14 | 5 | 55% | 76.15 | 0.0 | |||||||
| 01 | 07:55 | E 7 | 16.09 | Overcast | OVC048 | 14 | 5 | 55% | 76.15 | 0.0 | |||||||
| 01 | 07:35 | E 13 | 16.09 | Overcast | BKN050 OVC060 | 14 | 4 | 51% | 76.12 | 0.0 | |||||||
| 01 | 07:15 | E 11 | 16.09 | Mostly Cloudy | BKN060 BKN080 | 14 | 5 | 55% | 76.12 | 0.0 | |||||||
| 01 | 06:55 | E 13 | 16.09 | Partly Cloudy | FEW060 FEW080 SCT110 | 14 | 4 | 51% | 76.1 | 0.0 | |||||||
| 01 | 06:35 | E 15 | 16.09 | Overcast | OVC110 | 14 | 4 | 51% | 76.07 | 0.0 | |||||||
| 01 | 06:15 | E 13 | 16.09 | Overcast | BKN045 OVC110 | 14 | 4 | 51% | 76.05 | 0.0 | |||||||
| 01 | 05:55 | E 13 | 16.09 | Overcast | OVC045 | 14 | 4 | 51% | 76.05 | 0.0 | |||||||
| 01 | 05:35 | E 17 | 16.09 | Overcast | OVC046 | 14 | 4 | 51% | 76.05 | 0.0 | |||||||
| 01 | 05:15 | E 15 | 16.09 | Overcast | OVC047 | 14 | 4 | 51% | 76.07 | 0.0 | |||||||
| 01 | 04:55 | E 15 | 16.09 | Overcast | OVC049 | 14 | 3 | 48% | 76.07 | 0.0 | |||||||
| 01 | 04:35 | E 15 | 16.09 | Overcast | OVC048 | 14 | 4 | 51% | 76.05 | 0.0 | |||||||
| 01 | 04:15 | E 15 | 16.09 | Overcast | BKN049 OVC075 | 15 | 4 | 48% | 76.05 | 0.0 | |||||||
| 01 | 03:55 | E 17 G 28 | 16.09 | Overcast | OVC048 | 15 | 5 | 51% | 76.02 | 0.0 | |||||||
| 01 | 03:35 | E 17 | 16.09 | Overcast | OVC047 | 15 | 6 | 55% | 76 | 0.0 | |||||||
| 01 | 03:15 | E 11 | 16.09 | Overcast | OVC046 | 15 | 7 | 59% | 76 | 0.0 | |||||||
| 01 | 02:55 | E 9 | 16.09 | Overcast | OVC046 | 14 | 9 | 72% | 76 | 0.0 | 0.03 | ||||||
| 01 | 02:35 | E 11 | 16.09 | Mostly Cloudy | BKN046 BKN080 | 15 | 9 | 68% | 75.97 | 0.0 | |||||||
| 01 | 02:15 | NE 11 | 16.09 | Mostly Cloudy | FEW065 SCT075 BKN100 | 14 | 9 | 72% | 75.97 | 0.0 | |||||||
| 01 | 01:55 | NE 13 | 16.09 | Mostly Cloudy | FEW065 SCT080 BKN100 | 15 | 10 | 72% | 75.97 | 0.0 | 0.03 | ||||||
| 01 | 01:35 | NE 15 | 16.09 | Mostly Cloudy | SCT070 BKN100 | 15 | 11 | 77% | 75.95 | 0.0 | |||||||
| 01 | 01:15 | NE 15 | 16.09 | Mostly Cloudy | BKN065 | 15 | 12 | 82% | 75.95 | 0.0 | |||||||
| 01 | 00:55 | NE 17 | 16.09 | Fair | CLR | 16 | 14 | 88% | 75.92 | 0.0 | 0.03 | ||||||
| 01 | 00:35 | NE 11 | 16.09 | Partly Cloudy | FEW065 FEW075 SCT100 | 16 | 15 | 94% | 75.9 | 0.0 | |||||||
| 01 | 00:15 | Calm | 14.48 | Overcast | BKN060 BKN075 OVC100 | 16 | 16 | 100% | 75.9 | 0.0 | |||||||
| 30 | 23:55 | Calm | 16.09 | NULL | NULL | 16 | 16 | 100% | 75.9 | 0.0 | 0.03 | ||||||
| 30 | 23:35 | Calm | 6.44 | Light Rain | FEW023 BKN041 OVC049 | 17 | 15 | 88% | 75.9 | 0.0 | |||||||
| 30 | 23:15 | N 15 | 9.66 | Light Rain | FEW028 SCT049 BKN055 | 18 | 14 | 78% | 75.9 | 0.0 | |||||||
| 30 | 22:55 | W 6 | 16.09 | Overcast | FEW055 OVC085 | 17 | 14 | 83% | 75.87 | 0.0 | |||||||
| 30 | 22:35 | Calm | 16.09 | Partly Cloudy | FEW050 SCT090 | 17 | 14 | 83% | 75.87 | 0.0 | |||||||
| Date | Time (edt) | Wind (kph) | Vis. (km) | Weather | Sky Cond. | Air | Dwpt | Max. | Min. | Relative Humidity | Wind Chill (°C) | Heat Index (°C) | altimeter (cm) | sea level (mb) | 1 hr | 3 hr | 6 hr |
| 6 hour | |||||||||||||||||
| Temperature (ºC) | Pressure | Precipitation (cm) | |||||||||||||||